This is the latest recevied weather packets stored in our database for station/object KK7RJD. If no packets are shown the sender has not sent any weather packets the latest 10 day(s).
| Time | Temp. | Humidity | Pressure | Rain* | Wind** | Luminosity | Snow |
|---|---|---|---|---|---|---|---|
| 1777874971 | 11.11° C | 45% | 1008.7 hPa | 0 mm | - | 0 W/m² | - |
| 1777874667 | 11.11° C | 44% | 1008.7 hPa | 0 mm | - | 0 W/m² | - |
| 1777874363 | 11.67° C | 43% | 1008.8 hPa | 0 mm | - | 0 W/m² | - |
| 1777874062 | 12.22° C | 42% | 1008.8 hPa | 0 mm | - | 0 W/m² | - |
| 1777873760 | 13.89° C | 37% | 1008.6 hPa | 0 mm | - | 0 W/m² | - |
| 1777873456 | 13.89° C | 34% | 1008.7 hPa | 0 mm | - | 0 W/m² | - |
| 1777873152 | 12.78° C | 36% | 1009.1 hPa | 0 mm | - | 0 W/m² | - |
| 1777872849 | 12.22° C | 39% | 1008.7 hPa | 0 mm | - | 0 W/m² | - |
| 1777872547 | 11.67° C | 41% | 1008.7 hPa | 0 mm | - | 0 W/m² | - |
| 1777872244 | 12.22° C | 42% | 1008.8 hPa | 0 mm | - | 0 W/m² | - |
| 1777871942 | 11.67° C | 39% | 1008.8 hPa | 0 mm | - | 0 W/m² | - |
| 1777871638 | 11.67° C | 40% | 1008.8 hPa | 0 mm | - | 0 W/m² | - |
| 1777871334 | 11.11° C | 41% | 1008.6 hPa | 0 mm | - | 0 W/m² | - |
| 1777871032 | 10.56° C | 42% | 1008.8 hPa | 0 mm | - | 0 W/m² | - |
| 1777870729 | 10.56° C | 42% | 1008.8 hPa | 0 mm | - | 0 W/m² | - |
| 1777870424 | 10.56° C | 42% | 1008.6 hPa | 0 mm | - | 0 W/m² | - |
| 1777870121 | 11.11° C | 41% | 1008.7 hPa | 0 mm | - | 0 W/m² | - |
| 1777869818 | 11.67° C | 42% | 1008.8 hPa | 0 mm | - | 0 W/m² | - |
| 1777869516 | 11.67° C | 41% | 1008.8 hPa | 0 mm | - | 0 W/m² | - |
| 1777869212 | 12.22° C | 40% | 1008.7 hPa | 0 mm | - | 0 W/m² | - |
| 1777868910 | 11.67° C | 38% | 1008.8 hPa | 0 mm | - | 0 W/m² | - |
| 1777868606 | 12.22° C | 40% | 1008.8 hPa | 0 mm | - | 0 W/m² | - |
| 1777868302 | 12.78° C | 37% | 1008.9 hPa | 0 mm | - | 0 W/m² | - |
| 1777867999 | 13.89° C | 34% | 1008.8 hPa | 0 mm | - | 0 W/m² | - |
| 1777867695 | 13.89° C | 30% | 1008.9 hPa | 0 mm | - | 0 W/m² | - |
* Rain latest hour (hover to see other rain measurements)
** Current wind speed in m/s (hover to see current wind gust speed)